TimeEST,TemperatureF,Dew PointF,Humidity,Sea Level PressureIn,VisibilityMPH,Wind Direction,Wind SpeedMPH,Gust SpeedMPH,PrecipitationIn,Events,Conditions,WindDirDegrees,DateUTC
12:35 AM,35.6,26.6,70,29.93,10.0,SW,9.2,-,N/A,,Overcast,230,2013-01-07 05:35:00
12:55 AM,35.6,26.6,70,29.93,10.0,WSW,6.9,-,N/A,,Overcast,240,2013-01-07 05:55:00
1:55 AM,35.6,26.6,70,29.96,10.0,West,9.2,-,N/A,,Overcast,260,2013-01-07 06:55:00
2:35 AM,26.6,23.0,86,30.00,8.0,North,13.8,-,N/A,,Overcast,360,2013-01-07 07:35:00
2:55 AM,24.8,21.2,86,30.02,10.0,North,15.0,-,N/A,,Overcast,350,2013-01-07 07:55:00
3:15 AM,21.2,19.4,93,30.03,10.0,North,12.7,-,N/A,,Overcast,360,2013-01-07 08:15:00
3:35 AM,21.2,19.4,93,30.05,10.0,North,10.4,-,N/A,,Overcast,360,2013-01-07 08:35:00
3:55 AM,21.2,15.8,80,30.07,10.0,North,12.7,16.1,N/A,,Overcast,350,2013-01-07 08:55:00
4:35 AM,19.4,15.8,86,30.10,10.0,NNW,8.1,-,N/A,,Overcast,340,2013-01-07 09:35:00
4:55 AM,19.4,15.8,86,30.11,10.0,North,8.1,-,N/A,,Overcast,350,2013-01-07 09:55:00
5:15 AM,19.4,14.0,80,30.13,10.0,NNW,9.2,-,N/A,,Overcast,340,2013-01-07 10:15:00
5:35 AM,17.6,15.8,93,30.15,10.0,North,10.4,-,N/A,,Overcast,360,2013-01-07 10:35:00
5:55 AM,17.6,14.0,86,30.16,10.0,North,6.9,-,N/A,,Overcast,350,2013-01-07 10:55:00
6:15 AM,17.6,15.8,93,30.17,10.0,NNE,6.9,-,N/A,,Overcast,20,2013-01-07 11:15:00
6:55 AM,17.6,12.2,79,30.20,10.0,North,6.9,-,N/A,,Overcast,360,2013-01-07 11:55:00
7:35 AM,17.6,12.2,79,30.22,10.0,North,5.8,-,N/A,,Overcast,10,2013-01-07 12:35:00
7:55 AM,17.6,12.2,79,30.23,10.0,North,3.5,-,N/A,,Overcast,10,2013-01-07 12:55:00
8:15 AM,17.6,15.8,93,30.25,10.0,North,3.5,-,N/A,,Overcast,10,2013-01-07 13:15:00
8:35 AM,17.6,12.2,79,30.27,10.0,North,3.5,-,N/A,,Overcast,10,2013-01-07 13:35:00
9:35 AM,19.4,12.2,74,30.31,10.0,Calm,Calm,-,N/A,,Overcast,0,2013-01-07 14:35:00
9:55 AM,19.4,12.2,74,30.32,10.0,NNW,6.9,-,N/A,,Overcast,340,2013-01-07 14:55:00
10:15 AM,19.4,12.2,74,30.33,10.0,North,5.8,-,N/A,,Overcast,350,2013-01-07 15:15:00
10:35 AM,19.4,12.2,74,30.33,9.0,NNW,3.5,-,N/A,,Overcast,340,2013-01-07 15:35:00
10:55 AM,19.4,12.2,74,30.32,10.0,North,5.8,-,N/A,,Overcast,10,2013-01-07 15:55:00
11:15 AM,19.4,12.2,74,30.32,10.0,North,5.8,-,N/A,,Overcast,10,2013-01-07 16:15:00
11:35 AM,19.4,12.2,74,30.32,10.0,North,6.9,-,N/A,,Overcast,360,2013-01-07 16:35:00
11:55 AM,21.2,12.2,68,30.32,10.0,NNW,3.5,-,N/A,,Overcast,340,2013-01-07 16:55:00
12:35 PM,21.2,12.2,68,30.32,10.0,North,6.9,-,N/A,,Overcast,10,2013-01-07 17:35:00
1:35 PM,21.2,12.2,68,30.33,10.0,NE,4.6,-,N/A,,Clear,40,2013-01-07 18:35:00
2:15 PM,23.0,12.2,63,30.32,10.0,Calm,Calm,-,N/A,,Clear,0,2013-01-07 19:15:00
3:35 PM,24.8,12.2,59,30.34,10.0,Calm,Calm,-,N/A,,Clear,0,2013-01-07 20:35:00
3:55 PM,26.6,12.2,55,30.34,10.0,Calm,Calm,-,N/A,,Clear,0,2013-01-07 20:55:00
4:15 PM,24.8,10.4,54,30.33,10.0,Calm,Calm,-,N/A,,Clear,0,2013-01-07 21:15:00
4:35 PM,23.0,12.2,63,30.33,10.0,Calm,Calm,-,N/A,,Clear,0,2013-01-07 21:35:00
4:55 PM,19.4,10.4,68,30.34,10.0,Calm,Calm,-,N/A,,Clear,0,2013-01-07 21:55:00
5:15 PM,19.4,12.2,74,30.34,10.0,Calm,Calm,-,N/A,,Clear,0,2013-01-07 22:15:00
5:35 PM,19.4,14.0,80,30.34,10.0,Calm,Calm,-,N/A,,Clear,0,2013-01-07 22:35:00
6:15 PM,17.6,10.4,73,30.32,10.0,SSE,6.9,-,N/A,,Clear,160,2013-01-07 23:15:00
6:35 PM,15.8,12.2,86,30.33,10.0,SE,9.2,-,N/A,,Clear,130,2013-01-07 23:35:00
6:55 PM,17.6,12.2,79,30.32,10.0,ESE,10.4,-,N/A,,Clear,120,2013-01-07 23:55:00
8:15 PM,15.8,10.4,79,30.31,10.0,ESE,11.5,-,N/A,,Clear,120,2013-01-08 01:15:00
8:35 PM,15.8,10.4,79,30.30,10.0,ESE,11.5,-,N/A,,Clear,120,2013-01-08 01:35:00
8:55 PM,14.0,12.2,93,30.29,10.0,ESE,13.8,-,N/A,,Clear,120,2013-01-08 01:55:00
9:15 PM,14.0,10.4,86,30.30,10.0,SE,11.5,-,N/A,,Clear,130,2013-01-08 02:15:00
9:35 PM,12.2,6.8,79,30.30,10.0,ESE,13.8,-,N/A,,Clear,120,2013-01-08 02:35:00
9:55 PM,12.2,8.6,85,30.30,10.0,ESE,15.0,-,N/A,,Clear,120,2013-01-08 02:55:00
10:15 PM,10.4,6.8,85,30.29,10.0,ESE,16.1,-,N/A,,Clear,120,2013-01-08 03:15:00
10:35 PM,12.2,8.6,85,30.29,10.0,ESE,13.8,-,N/A,,Clear,120,2013-01-08 03:35:00
10:55 PM,12.2,10.4,92,30.27,10.0,ESE,12.7,-,N/A,,Clear,110,2013-01-08 03:55:00
11:15 PM,12.2,10.4,92,30.27,10.0,ESE,12.7,-,N/A,,Clear,120,2013-01-08 04:15:00
11:35 PM,12.2,8.6,85,30.27,10.0,ESE,10.4,-,N/A,,Clear,120,2013-01-08 04:35:00
11:55 PM,12.2,8.6,85,30.26,10.0,ESE,8.1,-,N/A,,Clear,110,2013-01-08 04:55:00